Weather History for Crestview, FL

Change the Weather History Date:

Thursday, September 19, 2013

  Actual Average Record
Temperature  
Mean Temperature 78 °F -  
Max Temperature 89 °F - - ()
Min Temperature 68 °F - - ()
Cooling Degree Days 13    
Growing Degree Days 28 (Base 50)    
Moisture  
Dew Point 67 °F    
Average Humidity 71    
Maximum Humidity 92    
Minimum Humidity 19    
Precipitation  
Precipitation 0.00 in - - ()
Sea Level Pressure  
Sea Level Pressure 30.06 in    
Wind  
Wind Speed 5 mph (East)    
Max Wind Speed 10 mph    
Max Gust Speed -    
Visibility 10 miles    
Events Rain    
T = Trace of Precipitation, MM = Missing Value Source: NWS Daily Summary

Daily Weather History Graph

Daily Weather History Graph

Search for Another Location

Airport:

Trip Planner

Search our weather history database for the weather conditions in past years. The results will help you decide how hot, cold, wet, or windy it might be!

Date:

Astronomy

Sep. 19, 2013 Rise Set
Actual Time 6:32 AM CDT 6:46 PM CDT
Civil Twilight 6:08 AM CDT 7:10 PM CDT
Nautical Twilight 5:40 AM CDT 7:38 PM CDT
Astronomical Twilight 5:12 AM CDT 8:06 PM CDT
Moon 6:49 PM CDT 6:37 AM CDT
Length of Visible Light 13h 01m
Length of Day
12h 13m
Full, 100% of the Moon is Illuminated
Sep 19
Full
Sep 26
Last Quarter
Oct 4
New
Oct 11
First Quarter
Oct 18
Full

Hourly Weather History & Observations

Time (CDT) Temp. Heat Index Dew Point Humidity Pressure Visibility Wind Dir Wind Speed Gust Speed Precip Events Conditions
12:58 AM 74.1 °F - 68.4 °F 82% 30.06 in 10.0 mi East 5.8 mph - N/A   Clear
1:58 AM 73.2 °F - 67.8 °F 83% 30.06 in 10.0 mi ENE 4.6 mph - N/A   Clear
2:58 AM 72.0 °F - 67.3 °F 85% 30.04 in 10.0 mi Variable 3.5 mph - N/A   Clear
3:58 AM 71.2 °F - 67.3 °F 87% 30.04 in 10.0 mi ENE 4.6 mph - N/A   Clear
4:58 AM 70.9 °F - 67.1 °F 88% 30.06 in 10.0 mi Variable 4.6 mph - N/A   Clear
5:58 AM 69.6 °F - 66.6 °F 90% 30.06 in 10.0 mi ENE 4.6 mph - N/A   Clear
6:58 AM 68.7 °F - 66.4 °F 92% 30.09 in 10.0 mi Variable 3.5 mph - N/A   Clear
7:58 AM 71.4 °F - 66.2 °F 84% 30.09 in 10.0 mi NE 8.1 mph - N/A   Clear
8:03 AM 71.6 °F - 66.2 °F 83% 30.08 in 3.0 mi ENE 9.2 mph - N/A Rain Light Rain
8:55 AM 76.6 °F - 67.8 °F 74% 30.09 in 10.0 mi East 8.1 mph - N/A   Partly Cloudy
9:56 AM 79.3 °F - 68.2 °F 69% 30.10 in 10.0 mi East 10.4 mph - N/A   Partly Cloudy
10:55 AM 82.0 °F - 35.6 °F 19% 30.11 in 10.0 mi ENE 3.5 mph - N/A   Partly Cloudy
11:55 AM 84.7 °F 87.6 °F 67.6 °F 56% 30.09 in 10.0 mi ENE 8.1 mph - N/A   Partly Cloudy
12:55 PM 86.9 °F 90.3 °F 67.8 °F 53% 30.08 in 10.0 mi SE 8.1 mph - N/A   Scattered Clouds
1:55 PM 87.6 °F 90.8 °F 67.5 °F 51% 30.06 in 10.0 mi SE 9.2 mph - N/A   Scattered Clouds
2:55 PM 88.7 °F 92.6 °F 68.7 °F 51% 30.04 in 10.0 mi Variable 4.6 mph - N/A   Scattered Clouds
3:55 PM 88.5 °F 93.1 °F 69.6 °F 53% 30.01 in 10.0 mi East 6.9 mph - N/A   Scattered Clouds
4:55 PM 86.5 °F 91.4 °F 70.3 °F 58% 30.02 in 10.0 mi SE 4.6 mph - N/A   Scattered Clouds
5:55 PM 86.9 °F 91.3 °F 69.4 °F 56% 30.01 in 10.0 mi East 4.6 mph - N/A   Scattered Clouds
6:55 PM 81.3 °F 84.8 °F 70.0 °F 68% 30.01 in 10.0 mi Calm Calm - N/A   Scattered Clouds
7:55 PM 77.0 °F - 70.5 °F 80% 30.03 in 10.0 mi NE 2.3 mph - N/A   Partly Cloudy
8:55 PM 76.3 °F - 70.9 °F 83% 30.04 in 10.0 mi SSE 4.6 mph - N/A   Mostly Cloudy
9:55 PM 79.0 °F - 69.3 °F 72% 30.04 in 10.0 mi East 3.5 mph - N/A   Mostly Cloudy
10:55 PM 77.9 °F - 68.2 °F 72% 30.04 in 10.0 mi East 3.5 mph - N/A   Partly Cloudy
11:55 PM 75.9 °F - 68.0 °F 76% 30.03 in 10.0 mi East 4.6 mph - N/A   Partly Cloudy